Amendola, Italy

5:47 AM CEST on July 26, 2017 (GMT +0200)
Amendola Mil

Weather History for LIBA - July, 2013

Change the Weather History Date:

Wednesday, July 10, 2013

  Actual Average Record
Temperature  
Mean Temperature 78 °F -  
Max Temperature 90 °F 89 °F 103 °F (2012)
Min Temperature 65 °F 64 °F 53 °F (1998)
Cooling Degree Days 12    
Growing Degree Days 28 (Base 50)    
Moisture  
Dew Point 64 °F    
Average Humidity 56    
Maximum Humidity 83    
Minimum Humidity 35    
Precipitation  
Precipitation 0.00 in 0.03 in - ()
Sea Level Pressure  
Sea Level Pressure 29.86 in    
Wind  
Wind Speed 7 mph ()    
Max Wind Speed 15 mph    
Max Gust Speed 14 mph    
Visibility 6.8 miles    
Events Thunderstorm    
Averages and records for this station are not official NWS values.
T = Trace of Precipitation, MM = Missing Value Source: Averaged Metar Reports

Daily Weather History Graph

Daily Weather History Graph

Search for Another Location

Airport or City:

Trip Planner

Search our weather history database for the weather conditions in past years. The results will help you decide how hot, cold, wet, or windy it might be!

Date:

Astronomy

Jul. 10, 2013 Rise Set
Actual Time 5:32 AM CEST 8:32 PM CEST
Civil Twilight 4:59 AM CEST 9:05 PM CEST
Nautical Twilight 4:16 AM CEST 9:47 PM CEST
Astronomical Twilight 3:26 AM CEST 10:37 PM CEST
Moon 7:38 AM CEST (7/10) 9:30 PM CEST (7/10)
Length of Visible Light 16h 06m
Length of Day
14h 59m
Waxing Crescent, 4% of the Moon is Illuminated
Jul 10
Waxing Crescent
Jul 16
First Quarter
Jul 22
Full
Jul 29
Last Quarter
Aug 6
New

Hourly Weather History & Observations

Time (CEST) Temp. Heat Index Dew Point Humidity Pressure Visibility Wind Dir Wind Speed Gust Speed Precip Events Conditions
6:55 AM 66.2 °F - 60.8 °F 83% 29.92 in - West 5.8 mph - N/A   Clear
7:55 AM 69.8 °F - 60.8 °F 73% 29.92 in - WNW 10.4 mph - N/A   Clear
8:00 AM 69 °F - 60 °F 67% 29.91 in 12 mi WNW 10.4 mph - -  
8:55 AM 77.0 °F - 62.6 °F 61% 29.92 in - West 15.0 mph - N/A   Clear
9:55 AM 78.8 °F - 64.4 °F 61% 29.89 in 6.2 mi WNW 12.7 mph - N/A   Partly Cloudy
10:55 AM 80.6 °F 82.3 °F 64.4 °F 58% 29.89 in 6.2 mi WNW 12.7 mph - N/A   Partly Cloudy
11:00 AM 81 °F - 65 °F 48% 29.89 in 12 mi WNW 12.7 mph - -   Scattered Clouds
11:55 AM 82.4 °F 83.9 °F 64.4 °F 54% 29.89 in 6.2 mi West 11.5 mph - N/A   Partly Cloudy
12:55 PM 86.0 °F 88.2 °F 66.2 °F 51% 29.86 in 6.2 mi West 10.4 mph - N/A   Scattered Clouds
1:55 PM 86.0 °F 86.6 °F 62.6 °F 45% 29.86 in 6.2 mi West 2.3 mph 13.8 mph N/A Thunderstorm Thunderstorm
2:00 PM 86 °F - 62 °F 35% 29.86 in 4 mi West 2.3 mph - - Thunderstorm Light Thunderstorm
2:55 PM 84.2 °F 86.6 °F 66.2 °F 55% 29.83 in 6.2 mi ENE 3.5 mph - N/A   Scattered Clouds
3:55 PM 86.0 °F 89.4 °F 68.0 °F 55% 29.83 in 6.2 mi East 2.3 mph - N/A   Scattered Clouds
4:55 PM 86.0 °F 87.3 °F 64.4 °F 48% 29.83 in 6.2 mi East 2.3 mph - N/A   Scattered Clouds
5:00 PM 86 °F - 64 °F 38% 29.83 in 6 mi East 2.3 mph - -   Mostly Cloudy
5:55 PM 82.4 °F 87.2 °F 71.6 °F 70% 29.83 in 6.2 mi East 5.8 mph - N/A   Scattered Clouds
6:55 PM 84.2 °F 85.0 °F 62.6 °F 48% 29.83 in 6.2 mi West 12.7 mph - N/A   Partly Cloudy
7:55 PM 82.4 °F 83.4 °F 62.6 °F 51% 29.80 in - West 6.9 mph - N/A   Clear
8:00 PM 83 °F - 62 °F 39% 29.82 in 6 mi West 6.9 mph - -   Clear
8:55 PM 77.0 °F - 60.8 °F 57% 29.80 in - WNW 3.5 mph - N/A   Clear
9:55 PM 75.2 °F - 64.4 °F 69% 29.83 in - Calm Calm - N/A   Clear
10:55 PM 71.6 °F - 60.8 °F 69% 29.83 in - Calm Calm - N/A   Clear